Flag Weather past 2 weeks in Penza, Russia

Now
45 °F

Mostly cloudy.


Feels Like: 41 °F
Forecast: 32 / 38 °F
Wind: 6 mph from South

Location: Saratov / Tsentralny

Current Time: Oct 31, 2014 at 12:18:23 PM

Latest Report: Oct 31, 2014 at 11:30 AM


Visibility: N/A

Pressure: 30.18 "Hg

Humidity: 76%

Dew point: 37 °F

Location of PenzaLocation

Historic Weather in Penza — Graph

°F

Penza temperature yesterday

Maximum temperature yesterday: 48 °F (at 12:00 PM)
Minimum temperature yesterday: 36 °F (at 6:00 AM)
Average temperature yesterday: 43 °F

Past Weeks' High & Low Weather Summary

 TemperatureHumidityPressure
High63 °F (Oct 16, 5:00 PM)100% (Oct 17, 2:00 PM)30.66 "Hg (Oct 17, 2:00 PM)
Low14 °F (Oct 24, 7:30 AM)25% (Oct 28, 2:00 PM)29.42 "Hg (Oct 21, 7:00 PM)
Average35 °F67%30.06 "Hg
* Reported Oct 16 12:00 Noon — Oct 31 11:00 AM, Penza, Weather by CustomWeather, © 2014

Note: Actual official high and low records may vary slightly from our data, if they occured in-between our weather recording intervals... More about our weather records

Advertising

Penza weather history for previous 24 hours

 ConditionsComfort  
Time TempWeatherWind HumidityBarometerVisibility
11:00 AM
Oct 31
45 °FMostly cloudy.6 mph76%30.18 "HgN/A
10:30 AM43 °FMostly cloudy.6 mph81%30.18 "HgN/A
10:00 AM43 °FMostly cloudy.6 mph81%30.18 "HgN/A
9:30 AM43 °FMostly cloudy.6 mph81%30.18 "HgN/A
9:00 AM43 °FMostly cloudy.6 mph81%30.18 "HgN/A
8:30 AM43 °FMostly cloudy.6 mph76%30.18 "HgN/A
8:00 AM43 °FMostly cloudy.6 mph76%30.18 "HgN/A
7:30 AM43 °FMostly cloudy.3 mph76%30.18 "HgN/A
7:00 AM43 °FMostly cloudy.6 mph76%30.18 "HgN/A
6:30 AM43 °FMostly cloudy.6 mph76%30.18 "HgN/A
6:00 AM43 °FMostly cloudy.6 mph76%30.18 "HgN/A
5:30 AM43 °FMostly cloudy.6 mph76%30.21 "HgN/A
5:00 AM43 °FMostly cloudy.10 mph76%30.21 "HgN/A
4:30 AM43 °FMostly cloudy.6 mph81%30.18 "HgN/A
4:00 AM45 °FMostly cloudy.10 mph76%30.18 "HgN/A
3:30 AM43 °FMostly cloudy.8 mph81%30.18 "HgN/A
3:00 AM45 °FMostly cloudy.8 mph76%30.18 "HgN/A
2:30 AM45 °FMostly cloudy.8 mph76%30.21 "HgN/A
2:00 AM45 °FMostly cloudy.6 mph76%30.21 "HgN/A
1:30 AM43 °FMostly cloudy.6 mph81%30.21 "HgN/A
1:00 AM43 °FMostly cloudy.6 mph81%30.21 "HgN/A
12:30 AM43 °FMostly cloudy.6 mph81%30.21 "HgN/A
12:00 AM43 °FOvercast.6 mph81%30.21 "HgN/A
11:30 PM
Oct 30
45 °FOvercast.6 mph71%30.21 "HgN/A
11:00 PM45 °FOvercast.6 mph71%30.21 "Hg4 mi
10:30 PM45 °FOvercast.6 mph66%30.21 "Hg4 mi
10:00 PM45 °FOvercast.6 mph66%30.21 "Hg3 mi
9:30 PM45 °FOvercast.6 mph66%30.24 "HgN/A
9:00 PM45 °FMostly cloudy.6 mph66%30.24 "HgN/A
8:30 PM45 °FMostly cloudy.6 mph66%30.24 "HgN/A
8:00 PM45 °FMostly cloudy.6 mph66%30.24 "HgN/A
7:30 PM45 °FMostly cloudy.8 mph61%30.24 "HgN/A
7:00 PM45 °FMostly cloudy.8 mph61%30.24 "HgN/A
6:30 PM46 °FMostly cloudy.10 mph57%30.24 "HgN/A
6:00 PM46 °FMostly cloudy.10 mph57%30.24 "HgN/A
5:30 PM46 °FMostly cloudy.13 mph53%30.21 "Hg4 mi
5:00 PM46 °FMostly cloudy.8 mph53%30.24 "Hg4 mi
4:30 PM48 °FOvercast.8 mph46%30.24 "Hg4 mi
4:00 PM46 °FOvercast.8 mph50%30.24 "Hg4 mi
3:30 PM48 °FHaze.10 mph46%30.24 "Hg3 mi
3:00 PM48 °FPartly sunny.10 mph46%30.24 "Hg3 mi
2:30 PM48 °FPartly sunny.8 mph46%30.27 "Hg3 mi
2:00 PM48 °FPartly sunny.8 mph50%30.27 "Hg3 mi
1:30 PM48 °FPartly sunny.6 mph46%30.27 "Hg4 mi
1:00 PM48 °FPartly sunny.8 mph46%30.27 "Hg4 mi
12:30 PM48 °FPartly sunny.6 mph50%30.27 "Hg3 mi
12:00 PM48 °FPartly sunny.6 mph50%30.27 "Hg3 mi
Weather by CustomWeather, © 2014

See weather overviewHow to use our weather pages